Date String (YYYY-MM-DD hh:mm:ss) UTC,Instrument flags,absolute air pressure of the measurement (hPa),sample flow rate (lpm),inlet stack bypass flow (lpm),air temperature of the measurement (°C),ambient temperature measured by the external sensor (°C),aerosol sample conditioner tube jacket temperature (°C),OPC LED temperature (°C),internal box temperature (°C),relative humidity of the measurement (%),span deviation,mass concentration of particles derived from Lorenz-Mie calculation of OPC scattering (μg/m³),mass concentration of particles derived from Lorenz-Mie calculation of OPC scattering (μg/m³),mass concentration of particles derived from Lorenz-Mie calculation of OPC scattering (μg/m³)
DateTimeUTC,F1_M11,P_M11,Q1_M11,Q2_M11,T1_M11,T2_M11,T3_M11,T4_M11,T5_M11,U1_M11,ZSPAN_M11,X2_M11,X0_M11,X1_M11
2023-10-02 11:00:00,SystemResetWarning,0829.5,5.00,000.00,028.2,026.8,000.0,036.8,029.7,18.0,0000.0,0004.38,0010.12,0003.59
2023-10-02 11:01:00,SystemResetWarning,0829.4,5.00,000.00,028.2,026.8,000.0,036.8,029.8,17.9,0000.0,0004.38,0010.47,0003.58
2023-10-02 11:02:00,SystemResetWarning,0829.3,5.00,000.00,028.2,026.8,000.0,036.8,029.8,17.9,0000.0,0004.40,0010.85,0003.60
2023-10-02 11:03:00,SystemResetWarning,0829.3,5.00,000.00,028.2,026.7,000.0,036.8,029.8,17.9,0000.0,0004.42,0010.77,0003.60
2023-10-02 11:04:00,SystemResetWarning,0829.3,5.00,000.00,028.2,026.7,000.0,036.8,029.8,17.8,0000.0,0004.45,0010.71,0003.60
2023-10-02 11:05:00,SystemResetWarning,0829.3,5.00,000.00,028.2,026.7,000.0,036.8,029.7,17.8,0000.0,0004.40,0010.80,0003.59
2023-10-02 11:06:00,SystemResetWarning,0829.4,5.00,000.00,028.2,026.7,000.0,036.7,029.7,17.7,0000.0,0004.38,0010.99,0003.59
2023-10-02 11:07:00,SystemResetWarning,0829.4,5.00,000.00,028.2,026.7,000.0,036.7,029.7,17.7,0000.0,0004.35,0010.60,0003.58
2023-10-02 11:08:00,SystemResetWarning,0829.4,5.00,000.00,028.2,026.7,000.0,036.7,029.7,17.8,0000.0,0004.38,0010.31,0003.58
2023-10-02 11:09:00,SystemResetWarning,0829.4,5.00,000.00,028.1,026.7,000.0,036.7,029.7,17.8,0000.0,0004.38,0009.66,0003.58
2023-10-02 11:10:00,SystemResetWarning,0829.3,4.99,000.00,028.1,026.7,000.0,036.7,029.7,17.8,0000.0,0004.35,0009.48,0003.59
2023-10-02 11:11:00,SystemResetWarning,0829.3,5.00,000.00,028.1,026.7,000.0,036.7,029.7,17.8,0000.0,0004.38,0009.57,0003.60
2023-10-02 11:12:00,SystemResetWarning,0829.3,5.00,000.00,028.1,026.7,000.0,036.7,029.7,17.8,0000.0,0004.38,0009.31,0003.60
2023-10-02 11:13:00,SystemResetWarning,0829.3,5.00,000.00,028.1,026.7,000.0,036.7,029.7,17.8,0000.0,0004.42,0009.24,0003.59
2023-10-02 11:14:00,SystemResetWarning,0829.3,5.00,000.00,028.1,026.7,000.0,036.7,029.6,17.8,0000.0,0004.43,0009.24,0003.60
2023-10-02 11:15:00,SystemResetWarning,0829.4,5.00,000.00,028.1,026.7,000.0,036.7,029.6,17.7,0000.0,0004.44,0009.30,0003.61
2023-10-02 11:16:00,SystemResetWarning,0829.4,5.00,000.00,028.1,026.6,000.0,036.6,029.6,17.7,0000.0,0004.45,0009.07,0003.61
2023-10-02 11:17:00,SystemResetWarning,0829.4,5.00,000.00,028.1,026.6,000.0,036.6,029.6,17.8,0000.0,0004.46,0008.83,0003.61
2023-10-02 11:18:00,SystemResetWarning,0829.5,5.00,000.00,028.0,026.6,000.0,036.6,029.6,17.8,0000.0,0004.47,0008.86,0003.62
2023-10-02 11:19:00,SystemResetWarning,0829.6,5.00,000.00,028.0,026.6,000.0,036.6,029.6,17.8,0000.0,0004.46,0008.77,0003.63
2023-10-02 11:20:00,SystemResetWarning,0829.6,5.00,000.00,028.0,026.6,000.0,036.6,029.6,17.9,0000.0,0004.49,0008.82,0003.64
2023-10-02 11:21:00,SystemResetWarning,0829.6,5.00,000.00,028.0,026.6,000.0,036.6,029.6,17.9,0000.0,0004.54,0009.10,0003.65
2023-10-02 11:22:00,SystemResetWarning,0829.6,5.00,000.00,028.0,026.6,000.0,036.6,029.6,18.0,0000.0,0004.52,0009.18,0003.64
2023-10-02 11:23:00,SystemResetWarning,0829.5,5.00,000.00,028.0,026.6,000.0,036.6,029.6,18.2,0000.0,0004.51,0009.49,0003.63
2023-10-02 11:24:00,SystemResetWarning,0829.4,5.01,000.00,028.0,026.6,000.0,036.6,029.6,18.3,0000.0,0004.46,0009.46,0003.63
2023-10-02 11:25:00,SystemResetWarning,0829.4,5.01,000.00,028.0,026.6,000.0,036.5,029.5,18.5,0000.0,0004.40,0009.69,0003.62
2023-10-02 11:26:00,SystemResetWarning,0829.3,4.99,000.00,028.0,026.6,000.0,036.5,029.5,18.4,0000.0,0004.35,0009.57,0003.61
2023-10-02 11:27:00,SystemResetWarning,0829.3,4.99,000.00,028.0,026.6,000.0,036.5,029.5,18.6,0000.0,0004.33,0009.47,0003.62
2023-10-02 11:28:00,SystemResetWarning,0829.4,4.99,000.00,027.9,026.6,000.0,036.5,029.5,18.8,0000.0,0004.33,0009.33,0003.61
2023-10-02 11:29:00,SystemResetWarning,0829.2,5.01,000.00,027.9,026.5,000.0,036.5,029.5,19.0,0000.0,0004.36,0009.44,0003.61
2023-10-02 11:30:00,SystemResetWarning,0829.2,5.01,000.00,027.9,026.5,000.0,036.5,029.5,19.0,0000.0,0004.37,0009.54,0003.62
2023-10-02 11:31:00,SystemResetWarning,0829.2,4.99,000.00,027.9,026.5,000.0,036.5,029.5,19.0,0000.0,0004.38,0010.12,0003.62
2023-10-02 11:32:00,SystemResetWarning,0829.2,4.99,000.00,027.9,026.5,000.0,036.5,029.5,19.0,0000.0,0004.38,0010.15,0003.61
2023-10-02 11:33:00,SystemResetWarning,0829.2,4.99,000.00,027.9,026.5,000.0,036.5,029.5,18.9,0000.0,0004.41,0010.52,0003.62
2023-10-02 11:34:00,SystemResetWarning,0829.2,5.01,000.00,027.9,026.5,000.0,036.5,029.5,19.0,0000.0,0004.41,0010.86,0003.63
2023-10-02 11:35:00,SystemResetWarning,0829.3,5.00,000.00,027.9,026.5,000.0,036.5,029.5,18.8,0000.0,0004.44,0011.64,0003.63
2023-10-02 11:36:00,SystemResetWarning,0829.3,5.01,000.00,027.9,026.5,000.0,036.5,029.5,18.7,0000.0,0004.47,0011.91,0003.64
2023-10-02 11:37:00,SystemResetWarning,0829.3,5.01,000.00,027.9,026.5,000.0,036.5,029.5,19.0,0000.0,0004.46,0011.75,0003.64
2023-10-02 11:38:00,SystemResetWarning,0829.4,5.00,000.00,027.9,026.5,000.0,036.4,029.5,18.9,0000.0,0004.47,0011.82,0003.63
2023-10-02 11:39:00,SystemResetWarning,0829.4,5.00,000.00,027.9,026.5,000.0,036.4,029.5,18.7,0000.0,0004.50,0011.99,0003.63
2023-10-02 11:40:00,SystemResetWarning,0829.4,5.00,000.00,027.9,026.5,000.0,036.4,029.5,18.4,0000.0,0004.46,0011.94,0003.63
2023-10-02 11:41:00,SystemResetWarning,0829.4,5.00,000.00,027.9,026.5,000.0,036.4,029.4,18.5,0000.0,0004.44,0012.24,0003.61
2023-10-02 11:42:00,SystemResetWarning,0829.4,5.00,000.00,027.8,026.4,000.0,036.4,029.4,18.5,0000.0,0004.39,0011.74,0003.61
2023-10-02 11:43:00,SystemResetWarning,0829.4,5.00,000.00,027.8,026.4,000.0,036.4,029.4,18.1,0000.0,0004.35,0011.42,0003.60
2023-10-02 11:44:00,SystemResetWarning,0829.4,5.00,000.00,027.8,026.4,000.0,036.4,029.4,18.1,0000.0,0004.33,0011.13,0003.59
2023-10-02 11:45:00,SystemResetWarning,0829.4,5.00,000.00,027.8,026.4,000.0,036.4,029.4,18.2,0000.0,0004.29,0010.95,0003.58
2023-10-02 11:46:00,SystemResetWarning,0829.3,5.00,000.00,027.8,026.4,000.0,036.4,029.4,18.2,0000.0,0004.30,0010.11,0003.58
2023-10-02 11:47:00,SystemResetWarning,0829.3,5.00,000.00,027.8,026.4,000.0,036.4,029.4,18.3,0000.0,0004.30,0009.43,0003.57
2023-10-02 11:48:00,SystemResetWarning,0829.2,5.00,000.00,027.8,026.4,000.0,036.4,029.4,18.3,0000.0,0004.30,0009.81,0003.57
2023-10-02 11:49:00,SystemResetWarning,0829.2,5.00,000.00,027.8,026.4,000.0,036.4,029.4,18.4,0000.0,0004.31,0009.99,0003.57
2023-10-02 11:50:00,SystemResetWarning,0829.2,5.00,000.00,027.8,026.4,000.0,036.4,029.4,18.4,0000.0,0004.36,0010.84,0003.57
2023-10-02 11:51:00,SystemResetWarning,0829.2,5.00,000.00,027.8,026.4,000.0,036.3,029.4,18.4,0000.0,0004.34,0011.02,0003.56
2023-10-02 11:52:00,SystemResetWarning,0829.2,5.00,000.00,027.8,026.4,000.0,036.3,029.4,18.5,0000.0,0004.29,0010.47,0003.56
2023-10-02 11:53:00,SystemResetWarning,0829.2,5.00,000.00,027.8,026.4,000.0,036.3,029.4,18.5,0000.0,0004.26,0010.43,0003.55
2023-10-02 11:54:00,SystemResetWarning,0829.2,5.00,000.00,027.8,026.4,000.0,036.3,029.4,18.6,0000.0,0004.27,0010.32,0003.55
2023-10-02 11:55:00,SystemResetWarning,0829.2,5.00,000.00,027.8,026.4,000.0,036.3,029.4,18.7,0000.0,0004.25,0010.21,0003.56
2023-10-02 11:56:00,SystemResetWarning,0829.2,5.00,000.00,027.8,026.4,000.0,036.3,029.4,18.7,0000.0,0004.30,0009.70,0003.56
2023-10-02 11:57:00,SystemResetWarning,0829.2,5.00,000.00,027.8,026.4,000.0,036.3,029.4,18.9,0000.0,0004.31,0009.74,0003.55
2023-10-02 11:58:00,SystemResetWarning,0829.2,5.00,000.00,027.8,026.4,000.0,036.3,029.4,19.0,0000.0,0004.32,0009.83,0003.53
2023-10-02 11:59:00,SystemResetWarning,0829.2,5.01,000.00,027.8,026.4,000.0,036.3,029.4,19.0,0000.0,0004.36,0009.74,0003.53
